Time,TemperatureF,DewpointF,PressureIn,WindDirection,WindDirectionDegrees,WindSpeedMPH,WindSpeedGustMPH,Humidity,HourlyPrecipIn,Conditions,Clouds,dailyrainin,SoftwareType,DateUTC
2014-09-21 00:00:00,68.6,51.3,29.75,ENE,65,0.0,0.0,54,0.00,,,0.00,WeatherTracker,2014-09-21 07:00:00,
2014-09-21 00:02:00,68.6,51.3,29.75,ENE,65,0.0,0.0,54,0.00,,,0.00,WeatherTracker,2014-09-21 07:02:00,
2014-09-21 00:03:00,68.5,50.7,29.75,ENE,65,0.0,0.0,53,0.00,,,0.00,WeatherTracker,2014-09-21 07:03:00,
2014-09-21 00:04:00,68.5,51.2,29.75,ENE,65,0.0,0.0,54,0.00,,,0.00,WeatherTracker,2014-09-21 07:04:00,
2014-09-21 00:05:00,68.5,50.7,29.75,ENE,64,3.0,0.0,53,0.00,,,0.00,WeatherTracker,2014-09-21 07:05:00,
2014-09-21 00:07:00,68.6,50.3,29.75,ENE,69,0.0,0.0,52,0.00,,,0.00,WeatherTracker,2014-09-21 07:07:00,
2014-09-21 00:08:00,68.6,50.3,29.75,ENE,69,2.0,0.0,52,0.00,,,0.00,WeatherTracker,2014-09-21 07:08:00,
2014-09-21 00:10:00,68.7,50.4,29.75,ENE,69,0.0,0.0,52,0.00,,,0.00,WeatherTracker,2014-09-21 07:10:00,
2014-09-21 00:11:00,68.7,50.4,29.75,ENE,69,0.0,0.0,52,0.00,,,0.00,WeatherTracker,2014-09-21 07:11:00,
2014-09-21 00:12:00,68.7,50.4,29.75,ENE,69,0.0,0.0,52,0.00,,,0.00,WeatherTracker,2014-09-21 07:12:00,
2014-09-21 00:14:00,68.8,49.9,29.75,ENE,69,0.0,0.0,51,0.00,,,0.00,WeatherTracker,2014-09-21 07:14:00,
2014-09-21 00:16:00,68.8,49.9,29.75,ENE,69,2.0,0.0,51,0.00,,,0.00,WeatherTracker,2014-09-21 07:16:00,
2014-09-21 00:19:00,68.8,49.9,29.75,ENE,65,1.0,0.0,51,0.00,,,0.00,WeatherTracker,2014-09-21 07:19:00,
2014-09-21 00:21:00,68.9,50.0,29.75,NE,37,2.0,0.0,51,0.00,,,0.00,WeatherTracker,2014-09-21 07:21:00,
2014-09-21 00:24:00,68.9,50.0,29.75,NE,55,2.0,0.0,51,0.00,,,0.00,WeatherTracker,2014-09-21 07:24:00,
2014-09-21 00:26:00,68.9,49.5,29.75,ENE,65,0.0,0.0,50,0.00,,,0.00,WeatherTracker,2014-09-21 07:26:00,
2014-09-21 00:29:00,68.9,50.5,29.75,ENE,61,1.0,0.0,52,0.00,,,0.00,WeatherTracker,2014-09-21 07:29:00,
2014-09-21 00:30:00,68.9,50.0,29.75,ENE,63,1.0,0.0,51,0.00,,,0.00,WeatherTracker,2014-09-21 07:30:00,
2014-09-21 00:32:00,68.9,50.5,29.75,North,360,2.0,0.0,52,0.00,,,0.00,WeatherTracker,2014-09-21 07:32:00,
2014-09-21 00:33:00,68.8,49.9,29.75,ENE,63,5.0,0.0,51,0.00,,,0.00,WeatherTracker,2014-09-21 07:33:00,
2014-09-21 00:35:00,68.9,50.0,29.75,ENE,60,4.0,0.0,51,0.00,,,0.00,WeatherTracker,2014-09-21 07:35:00,
2014-09-21 00:37:00,68.9,50.0,29.75,ENE,62,0.0,0.0,51,0.00,,,0.00,WeatherTracker,2014-09-21 07:37:00,
2014-09-21 00:39:00,68.9,50.0,29.75,ENE,62,0.0,0.0,51,0.00,,,0.00,WeatherTracker,2014-09-21 07:39:00,
2014-09-21 00:40:00,68.9,50.0,29.75,ENE,62,1.0,0.0,51,0.00,,,0.00,WeatherTracker,2014-09-21 07:40:00,
2014-09-21 00:42:00,68.9,50.5,29.75,NNE,23,1.0,0.0,52,0.00,,,0.00,WeatherTracker,2014-09-21 07:42:00,
2014-09-21 00:44:00,68.9,51.1,29.75,North,9,0.0,0.0,53,0.00,,,0.00,WeatherTracker,2014-09-21 07:44:00,
2014-09-21 00:45:00,68.8,51.0,29.75,North,9,0.0,0.0,53,0.00,,,0.00,WeatherTracker,2014-09-21 07:45:00,
2014-09-21 00:46:00,68.8,51.0,29.75,North,9,0.0,0.0,53,0.00,,,0.00,WeatherTracker,2014-09-21 07:46:00,
2014-09-21 00:48:00,68.6,51.3,29.75,NE,38,2.0,0.0,54,0.00,,,0.00,WeatherTracker,2014-09-21 07:48:00,
2014-09-21 00:50:00,68.4,50.1,29.75,NE,56,2.0,0.0,52,0.00,,,0.00,WeatherTracker,2014-09-21 07:50:00,
2014-09-21 00:51:00,68.3,50.0,29.75,NE,54,0.0,0.0,52,0.00,,,0.00,WeatherTracker,2014-09-21 07:51:00,
2014-09-21 00:53:00,68.2,49.9,29.75,ENE,57,1.0,0.0,52,0.00,,,0.00,WeatherTracker,2014-09-21 07:53:00,
2014-09-21 00:55:00,68.2,50.9,29.75,ENE,57,0.0,0.0,54,0.00,,,0.00,WeatherTracker,2014-09-21 07:55:00,
2014-09-21 00:57:00,68.1,50.3,29.75,NE,56,2.0,0.0,53,0.00,,,0.00,WeatherTracker,2014-09-21 07:57:00,
2014-09-21 00:59:00,68.1,50.3,29.75,NE,54,1.0,0.0,53,0.00,,,0.00,WeatherTracker,2014-09-21 07:59:00,
2014-09-21 01:00:00,68.1,50.3,29.75,NE,54,0.0,0.0,53,0.00,,,0.00,WeatherTracker,2014-09-21 08:00:00,
2014-09-21 01:02:00,68.1,50.8,29.75,NE,54,0.0,0.0,54,0.00,,,0.00,WeatherTracker,2014-09-21 08:02:00,
2014-09-21 01:04:00,68.0,50.2,29.75,NE,54,0.0,0.0,53,0.00,,,0.00,WeatherTracker,2014-09-21 08:04:00,
2014-09-21 01:05:00,68.0,50.7,29.75,NE,54,0.0,0.0,54,0.00,,,0.00,WeatherTracker,2014-09-21 08:05:00,
2014-09-21 01:08:00,67.9,50.6,29.75,NE,54,0.0,0.0,54,0.00,,,0.00,WeatherTracker,2014-09-21 08:08:00,
2014-09-21 01:09:00,67.9,50.6,29.75,NE,54,0.0,0.0,54,0.00,,,0.00,WeatherTracker,2014-09-21 08:09:00,
2014-09-21 01:10:00,67.8,50.5,29.75,NE,54,0.0,0.0,54,0.00,,,0.00,WeatherTracker,2014-09-21 08:10:00,
2014-09-21 01:11:00,67.8,50.5,29.75,NE,54,1.0,0.0,54,0.00,,,0.00,WeatherTracker,2014-09-21 08:11:00,
2014-09-21 01:14:00,67.7,50.9,29.75,NE,54,0.0,0.0,55,0.00,,,0.00,WeatherTracker,2014-09-21 08:14:00,
2014-09-21 01:16:00,67.6,51.3,29.75,NE,54,1.0,0.0,56,0.00,,,0.00,WeatherTracker,2014-09-21 08:16:00,
2014-09-21 01:19:00,67.4,51.1,29.75,NE,53,0.0,0.0,56,0.00,,,0.00,WeatherTracker,2014-09-21 08:19:00,
2014-09-21 01:20:00,67.4,51.1,29.75,NE,53,0.0,0.0,56,0.00,,,0.00,WeatherTracker,2014-09-21 08:20:00,
2014-09-21 01:21:00,67.3,51.1,29.75,NE,53,1.0,0.0,56,0.00,,,0.00,WeatherTracker,2014-09-21 08:21:00,
2014-09-21 01:25:00,67.1,50.9,29.76,NE,53,0.0,0.0,56,0.00,,,0.00,WeatherTracker,2014-09-21 08:25:00,
2014-09-21 01:26:00,67.1,50.9,29.75,NE,53,0.0,0.0,56,0.00,,,0.00,WeatherTracker,2014-09-21 08:26:00,
2014-09-21 01:27:00,67.0,51.3,29.75,NE,53,0.0,0.0,57,0.00,,,0.00,WeatherTracker,2014-09-21 08:27:00,
2014-09-21 01:30:00,66.9,51.2,29.76,NE,53,0.0,0.0,57,0.00,,,0.00,WeatherTracker,2014-09-21 08:30:00,
2014-09-21 01:31:00,66.8,51.1,29.76,NE,53,0.0,0.0,57,0.00,,,0.00,WeatherTracker,2014-09-21 08:31:00,
2014-09-21 01:32:00,66.8,51.1,29.76,NE,53,0.0,0.0,57,0.00,,,0.00,WeatherTracker,2014-09-21 08:32:00,
2014-09-21 01:35:00,66.7,51.4,29.76,NE,53,1.0,0.0,58,0.00,,,0.00,WeatherTracker,2014-09-21 08:35:00,
2014-09-21 01:36:00,66.6,50.9,29.76,NE,53,0.0,0.0,57,0.00,,,0.00,WeatherTracker,2014-09-21 08:36:00,
2014-09-21 01:37:00,66.6,50.9,29.76,NE,53,0.0,0.0,57,0.00,,,0.00,WeatherTracker,2014-09-21 08:37:00,
2014-09-21 01:40:00,66.5,50.8,29.76,NE,53,0.0,0.0,57,0.00,,,0.00,WeatherTracker,2014-09-21 08:40:00,
2014-09-21 01:42:00,66.5,50.8,29.76,NE,53,0.0,0.0,57,0.00,,,0.00,WeatherTracker,2014-09-21 08:42:00,
2014-09-21 01:45:00,66.4,50.7,29.76,NE,53,0.0,0.0,57,0.00,,,0.00,WeatherTracker,2014-09-21 08:45:00,
2014-09-21 01:47:00,66.4,51.2,29.76,NE,53,0.0,0.0,58,0.00,,,0.00,WeatherTracker,2014-09-21 08:47:00,
2014-09-21 01:50:00,66.3,51.1,29.76,NE,53,0.0,0.0,58,0.00,,,0.00,WeatherTracker,2014-09-21 08:50:00,
2014-09-21 01:52:00,66.2,51.0,29.76,NE,53,0.0,0.0,58,0.00,,,0.00,WeatherTracker,2014-09-21 08:52:00,
2014-09-21 01:53:00,66.2,51.0,29.76,NE,53,0.0,0.0,58,0.00,,,0.00,WeatherTracker,2014-09-21 08:53:00,
2014-09-21 01:55:00,66.1,50.4,29.76,NE,53,1.0,0.0,57,0.00,,,0.00,WeatherTracker,2014-09-21 08:55:00,
2014-09-21 01:58:00,66.0,51.3,29.76,NE,53,0.0,0.0,59,0.00,,,0.00,WeatherTracker,2014-09-21 08:58:00,
2014-09-21 01:59:00,65.9,51.2,29.76,NE,53,0.0,0.0,59,0.00,,,0.00,WeatherTracker,2014-09-21 08:59:00,
2014-09-21 02:01:00,65.9,51.2,29.76,NE,53,0.0,0.0,59,0.00,,,0.00,WeatherTracker,2014-09-21 09:01:00,
2014-09-21 02:04:00,65.8,51.5,29.76,NE,53,0.0,0.0,60,0.00,,,0.00,WeatherTracker,2014-09-21 09:04:00,
2014-09-21 02:06:00,65.7,51.4,29.76,NE,53,0.0,0.0,60,0.00,,,0.00,WeatherTracker,2014-09-21 09:06:00,
2014-09-21 02:09:00,65.5,51.7,29.76,NE,53,0.0,0.0,61,0.00,,,0.00,WeatherTracker,2014-09-21 09:09:00,
2014-09-21 02:10:00,65.5,51.7,29.76,NE,53,0.0,0.0,61,0.00,,,0.00,WeatherTracker,2014-09-21 09:10:00,
2014-09-21 02:12:00,65.4,51.1,29.76,NE,53,0.0,0.0,60,0.00,,,0.00,WeatherTracker,2014-09-21 09:12:00,
2014-09-21 02:14:00,65.3,51.5,29.76,NE,53,0.0,0.0,61,0.00,,,0.00,WeatherTracker,2014-09-21 09:14:00,
2014-09-21 02:15:00,65.3,51.5,29.76,NE,53,0.0,0.0,61,0.00,,,0.00,WeatherTracker,2014-09-21 09:15:00,
2014-09-21 02:16:00,65.2,51.0,29.76,NE,53,0.0,0.0,60,0.00,,,0.00,WeatherTracker,2014-09-21 09:16:00,
2014-09-21 02:17:00,65.1,50.9,29.76,NE,53,0.0,0.0,60,0.00,,,0.00,WeatherTracker,2014-09-21 09:17:00,
2014-09-21 02:20:00,64.9,50.7,29.76,NE,53,0.0,0.0,60,0.00,,,0.00,WeatherTracker,2014-09-21 09:20:00,
2014-09-21 02:21:00,64.8,50.6,29.76,NE,53,0.0,0.0,60,0.00,,,0.00,WeatherTracker,2014-09-21 09:21:00,
2014-09-21 02:22:00,64.7,50.5,29.76,NE,53,1.0,0.0,60,0.00,,,0.00,WeatherTracker,2014-09-21 09:22:00,
2014-09-21 02:25:00,64.6,50.8,29.76,NE,53,0.0,0.0,61,0.00,,,0.00,WeatherTracker,2014-09-21 09:25:00,
2014-09-21 02:26:00,64.5,50.7,29.76,NNE,25,0.0,0.0,61,0.00,,,0.00,WeatherTracker,2014-09-21 09:26:00,
2014-09-21 02:27:00,64.5,51.2,29.76,NNE,25,0.0,0.0,62,0.00,,,0.00,WeatherTracker,2014-09-21 09:27:00,
2014-09-21 02:28:00,64.4,51.1,29.76,NNE,26,0.0,0.0,62,0.00,,,0.00,WeatherTracker,2014-09-21 09:28:00,
2014-09-21 02:30:00,64.4,51.1,29.76,NNE,26,0.0,0.0,62,0.00,,,0.00,WeatherTracker,2014-09-21 09:30:00,
2014-09-21 02:31:00,64.3,50.6,29.76,NNE,26,0.0,0.0,61,0.00,,,0.00,WeatherTracker,2014-09-21 09:31:00,
2014-09-21 02:33:00,64.2,50.9,29.76,NNE,27,0.0,0.0,62,0.00,,,0.00,WeatherTracker,2014-09-21 09:33:00,
2014-09-21 02:34:00,64.2,50.5,29.76,NNE,27,1.0,0.0,61,0.00,,,0.00,WeatherTracker,2014-09-21 09:34:00,
2014-09-21 02:35:00,64.1,50.4,29.76,NNE,27,0.0,0.0,61,0.00,,,0.00,WeatherTracker,2014-09-21 09:35:00,
2014-09-21 02:37:00,64.1,51.2,29.76,NNE,27,0.0,0.0,63,0.00,,,0.00,WeatherTracker,2014-09-21 09:37:00,
2014-09-21 02:38:00,64.1,51.2,29.76,NNE,27,0.0,0.0,63,0.00,,,0.00,WeatherTracker,2014-09-21 09:38:00,
2014-09-21 02:39:00,64.1,51.2,29.76,NNE,27,0.0,0.0,63,0.00,,,0.00,WeatherTracker,2014-09-21 09:39:00,
2014-09-21 02:40:00,64.1,51.2,29.76,NNE,23,0.0,0.0,63,0.00,,,0.00,WeatherTracker,2014-09-21 09:40:00,
2014-09-21 02:43:00,64.0,51.1,29.76,NNW,348,0.0,0.0,63,0.00,,,0.00,WeatherTracker,2014-09-21 09:43:00,
2014-09-21 02:44:00,64.0,51.1,29.76,NNW,345,1.0,0.0,63,0.00,,,0.00,WeatherTracker,2014-09-21 09:44:00,
2014-09-21 02:45:00,64.0,50.7,29.76,NNW,345,0.0,0.0,62,0.00,,,0.00,WeatherTracker,2014-09-21 09:45:00,
2014-09-21 02:49:00,64.3,50.6,29.76,NNW,346,0.0,0.0,61,0.00,,,0.00,WeatherTracker,2014-09-21 09:49:00,
2014-09-21 02:50:00,64.3,50.6,29.76,NNW,346,0.0,0.0,61,0.00,,,0.00,WeatherTracker,2014-09-21 09:50:00,
2014-09-21 02:54:00,64.7,51.4,29.76,NNW,345,1.0,0.0,62,0.00,,,0.00,WeatherTracker,2014-09-21 09:54:00,
2014-09-21 02:55:00,64.7,51.4,29.76,NNW,345,0.0,0.0,62,0.00,,,0.00,WeatherTracker,2014-09-21 09:55:00,
2014-09-21 02:56:00,64.7,51.4,29.76,NNW,345,0.0,0.0,62,0.00,,,0.00,WeatherTracker,2014-09-21 09:56:00,
2014-09-21 03:00:00,64.7,51.4,29.76,NNW,346,0.0,0.0,62,0.00,,,0.00,WeatherTracker,2014-09-21 10:00:00,
2014-09-21 03:01:00,64.6,51.3,29.76,NNW,346,0.0,0.0,62,0.00,,,0.00,WeatherTracker,2014-09-21 10:01:00,
2014-09-21 03:05:00,64.5,51.2,29.76,NNW,345,0.0,0.0,62,0.00,,,0.00,WeatherTracker,2014-09-21 10:05:00,
2014-09-21 03:06:00,64.5,51.2,29.76,NNW,345,0.0,0.0,62,0.00,,,0.00,WeatherTracker,2014-09-21 10:06:00,
2014-09-21 03:07:00,64.4,51.1,29.76,NNW,345,0.0,0.0,62,0.00,,,0.00,WeatherTracker,2014-09-21 10:07:00,
2014-09-21 03:10:00,64.3,51.0,29.76,NNW,344,0.0,0.0,62,0.00,,,0.00,WeatherTracker,2014-09-21 10:10:00,
2014-09-21 03:11:00,64.3,51.0,29.76,NNW,344,0.0,0.0,62,0.00,,,0.00,WeatherTracker,2014-09-21 10:11:00,
2014-09-21 03:13:00,64.2,50.9,29.76,NNW,344,0.0,0.0,62,0.00,,,0.00,WeatherTracker,2014-09-21 10:13:00,
2014-09-21 03:15:00,64.1,51.7,29.76,NNW,344,0.0,0.0,64,0.00,,,0.00,WeatherTracker,2014-09-21 10:15:00,
2014-09-21 03:16:00,64.0,51.6,29.76,NNW,344,0.0,0.0,64,0.00,,,0.00,WeatherTracker,2014-09-21 10:16:00,
2014-09-21 03:17:00,64.0,51.6,29.76,NNW,344,0.0,0.0,64,0.00,,,0.00,WeatherTracker,2014-09-21 10:17:00,
2014-09-21 03:18:00,64.0,51.6,29.76,NNW,344,0.0,0.0,64,0.00,,,0.00,WeatherTracker,2014-09-21 10:18:00,
2014-09-21 03:20:00,63.8,51.0,29.76,NNW,344,0.0,0.0,63,0.00,,,0.00,WeatherTracker,2014-09-21 10:20:00,
2014-09-21 03:22:00,63.6,50.8,29.76,NNW,344,0.0,0.0,63,0.00,,,0.00,WeatherTracker,2014-09-21 10:22:00,
2014-09-21 03:23:00,63.6,50.8,29.77,NNW,344,0.0,0.0,63,0.00,,,0.00,WeatherTracker,2014-09-21 10:23:00,
2014-09-21 03:26:00,63.2,50.8,29.77,NNW,344,0.0,0.0,64,0.00,,,0.00,WeatherTracker,2014-09-21 10:26:00,
2014-09-21 03:27:00,63.1,50.7,29.77,NNW,344,0.0,0.0,64,0.00,,,0.00,WeatherTracker,2014-09-21 10:27:00,
2014-09-21 03:28:00,63.1,50.7,29.77,NNW,344,0.0,0.0,64,0.00,,,0.00,WeatherTracker,2014-09-21 10:28:00,
2014-09-21 03:31:00,62.9,50.5,29.77,NNW,344,0.0,0.0,64,0.00,,,0.00,WeatherTracker,2014-09-21 10:31:00,
2014-09-21 03:33:00,62.7,50.8,29.77,NNW,344,0.0,0.0,65,0.00,,,0.00,WeatherTracker,2014-09-21 10:33:00,
2014-09-21 03:36:00,62.6,50.7,29.76,NNW,344,1.0,0.0,65,0.00,,,0.00,WeatherTracker,2014-09-21 10:36:00,
2014-09-21 03:38:00,62.5,51.4,29.77,NNW,344,0.0,0.0,67,0.00,,,0.00,WeatherTracker,2014-09-21 10:38:00,
2014-09-21 03:39:00,62.4,50.9,29.76,NNW,344,0.0,0.0,66,0.00,,,0.00,WeatherTracker,2014-09-21 10:39:00,
2014-09-21 03:40:00,62.3,50.8,29.77,NNW,344,0.0,0.0,66,0.00,,,0.00,WeatherTracker,2014-09-21 10:40:00,
2014-09-21 03:44:00,62.0,50.5,29.77,NNW,344,0.0,0.0,66,0.00,,,0.00,WeatherTracker,2014-09-21 10:44:00,
2014-09-21 03:46:00,61.9,50.8,29.77,NNW,344,0.0,0.0,67,0.00,,,0.00,WeatherTracker,2014-09-21 10:46:00,
2014-09-21 03:49:00,61.7,50.6,29.77,NNW,344,0.0,0.0,67,0.00,,,0.00,WeatherTracker,2014-09-21 10:49:00,
2014-09-21 03:53:00,61.5,50.8,29.77,NNW,344,0.0,0.0,68,0.00,,,0.00,WeatherTracker,2014-09-21 10:53:00,
2014-09-21 03:54:00,61.5,50.4,29.77,NNW,344,0.0,0.0,67,0.00,,,0.00,WeatherTracker,2014-09-21 10:54:00,
2014-09-21 03:55:00,61.4,50.7,29.77,NNW,344,0.0,0.0,68,0.00,,,0.00,WeatherTracker,2014-09-21 10:55:00,
2014-09-21 03:58:00,61.3,51.0,29.77,NNW,344,0.0,0.0,69,0.00,,,0.00,WeatherTracker,2014-09-21 10:58:00,
2014-09-21 03:59:00,61.2,50.9,29.77,NNW,344,0.0,0.0,69,0.00,,,0.00,WeatherTracker,2014-09-21 10:59:00,
2014-09-21 04:00:00,61.2,50.9,29.77,NNW,344,0.0,0.0,69,0.00,,,0.00,WeatherTracker,2014-09-21 11:00:00,
2014-09-21 04:03:00,61.0,50.4,29.77,NNW,344,0.0,0.0,68,0.00,,,0.00,WeatherTracker,2014-09-21 11:03:00,
2014-09-21 04:04:00,60.9,50.3,29.77,NNW,344,0.0,0.0,68,0.00,,,0.00,WeatherTracker,2014-09-21 11:04:00,
2014-09-21 04:05:00,60.9,50.3,29.77,NNW,344,0.0,0.0,68,0.00,,,0.00,WeatherTracker,2014-09-21 11:05:00,
2014-09-21 04:06:00,60.8,50.2,29.77,NNW,344,0.0,0.0,68,0.00,,,0.00,WeatherTracker,2014-09-21 11:06:00,
2014-09-21 04:09:00,60.7,50.5,29.78,NNW,344,0.0,0.0,69,0.00,,,0.00,WeatherTracker,2014-09-21 11:09:00,
2014-09-21 04:10:00,60.6,50.4,29.77,NNW,344,0.0,0.0,69,0.00,,,0.00,WeatherTracker,2014-09-21 11:10:00,
2014-09-21 04:11:00,60.5,50.3,29.77,NNW,344,0.0,0.0,69,0.00,,,0.00,WeatherTracker,2014-09-21 11:11:00,
2014-09-21 04:14:00,60.4,50.6,29.78,NNW,344,0.0,0.0,70,0.00,,,0.00,WeatherTracker,2014-09-21 11:14:00,
2014-09-21 04:15:00,60.3,50.5,29.77,NNW,344,0.0,0.0,70,0.00,,,0.00,WeatherTracker,2014-09-21 11:15:00,
2014-09-21 04:16:00,60.3,50.5,29.78,NNW,344,0.0,0.0,70,0.00,,,0.00,WeatherTracker,2014-09-21 11:16:00,
2014-09-21 04:19:00,60.1,50.3,29.78,NNW,344,0.0,0.0,70,0.00,,,0.00,WeatherTracker,2014-09-21 11:19:00,
2014-09-21 04:21:00,60.0,50.2,29.78,NNW,344,0.0,0.0,70,0.00,,,0.00,WeatherTracker,2014-09-21 11:21:00,
2014-09-21 04:22:00,60.0,50.2,29.78,NNW,344,0.0,0.0,70,0.00,,,0.00,WeatherTracker,2014-09-21 11:22:00,
2014-09-21 04:25:00,59.8,50.4,29.78,NNW,344,0.0,0.0,71,0.00,,,0.00,WeatherTracker,2014-09-21 11:25:00,
2014-09-21 04:26:00,59.8,50.4,29.78,NNW,344,0.0,0.0,71,0.00,,,0.00,WeatherTracker,2014-09-21 11:26:00,
2014-09-21 04:27:00,59.8,50.4,29.78,NNW,344,0.0,0.0,71,0.00,,,0.00,WeatherTracker,2014-09-21 11:27:00,
2014-09-21 04:30:00,59.6,50.2,29.78,NNW,344,0.0,0.0,71,0.00,,,0.00,WeatherTracker,2014-09-21 11:30:00,
2014-09-21 04:31:00,59.6,50.2,29.78,NNW,344,0.0,0.0,71,0.00,,,0.00,WeatherTracker,2014-09-21 11:31:00,
2014-09-21 04:32:00,59.5,50.1,29.78,NNW,344,0.0,0.0,71,0.00,,,0.00,WeatherTracker,2014-09-21 11:32:00,
2014-09-21 04:36:00,59.3,49.9,29.78,NNW,344,0.0,0.0,71,0.00,,,0.00,WeatherTracker,2014-09-21 11:36:00,
2014-09-21 04:37:00,59.2,49.8,29.78,NNW,344,0.0,0.0,71,0.00,,,0.00,WeatherTracker,2014-09-21 11:37:00,
2014-09-21 04:41:00,59.1,49.7,29.78,NNW,344,0.0,0.0,71,0.00,,,0.00,WeatherTracker,2014-09-21 11:41:00,
2014-09-21 04:42:00,59.0,49.6,29.78,NNW,344,0.0,0.0,71,0.00,,,0.00,WeatherTracker,2014-09-21 11:42:00,
2014-09-21 04:47:00,58.9,49.9,29.78,NNW,344,0.0,0.0,72,0.00,,,0.00,WeatherTracker,2014-09-21 11:47:00,
2014-09-21 04:48:00,58.8,49.8,29.78,NNW,344,0.0,0.0,72,0.00,,,0.00,WeatherTracker,2014-09-21 11:48:00,
2014-09-21 04:52:00,58.7,49.7,29.78,NNW,344,0.0,0.0,72,0.00,,,0.00,WeatherTracker,2014-09-21 11:52:00,
2014-09-21 04:53:00,58.7,49.7,29.78,NNW,344,0.0,0.0,72,0.00,,,0.00,WeatherTracker,2014-09-21 11:53:00,
2014-09-21 04:57:00,58.5,49.9,29.78,NNW,344,0.0,0.0,73,0.00,,,0.00,WeatherTracker,2014-09-21 11:57:00,
2014-09-21 04:58:00,58.5,49.5,29.78,NNW,344,0.0,0.0,72,0.00,,,0.00,WeatherTracker,2014-09-21 11:58:00,
2014-09-21 05:02:00,58.4,49.8,29.78,NNW,344,0.0,0.0,73,0.00,,,0.00,WeatherTracker,2014-09-21 12:02:00,
2014-09-21 05:03:00,58.3,49.7,29.78,NNW,344,0.0,0.0,73,0.00,,,0.00,WeatherTracker,2014-09-21 12:03:00,
2014-09-21 05:04:00,58.4,49.8,29.78,NNW,344,0.0,0.0,73,0.00,,,0.00,WeatherTracker,2014-09-21 12:04:00,
2014-09-21 05:05:00,58.3,49.7,29.78,NNW,344,0.0,0.0,73,0.00,,,0.00,WeatherTracker,2014-09-21 12:05:00,
2014-09-21 05:07:00,58.2,49.6,29.78,NNW,344,0.0,0.0,73,0.00,,,0.00,WeatherTracker,2014-09-21 12:07:00,
2014-09-21 05:09:00,58.1,49.5,29.78,NNW,344,0.0,0.0,73,0.00,,,0.00,WeatherTracker,2014-09-21 12:09:00,
2014-09-21 05:11:00,58.0,49.8,29.78,NNW,344,0.0,0.0,74,0.00,,,0.00,WeatherTracker,2014-09-21 12:11:00,
2014-09-21 05:14:00,57.9,49.7,29.78,NNW,344,0.0,0.0,74,0.00,,,0.00,WeatherTracker,2014-09-21 12:14:00,
2014-09-21 05:16:00,57.8,49.9,29.78,NNW,344,0.0,0.0,75,0.00,,,0.00,WeatherTracker,2014-09-21 12:16:00,
2014-09-21 05:19:00,57.7,49.8,29.79,NNW,344,0.0,0.0,75,0.00,,,0.00,WeatherTracker,2014-09-21 12:19:00,
2014-09-21 05:20:00,57.7,49.8,29.79,NNW,344,0.0,0.0,75,0.00,,,0.00,WeatherTracker,2014-09-21 12:20:00,
2014-09-21 05:21:00,57.6,50.1,29.78,NNW,344,0.0,0.0,76,0.00,,,0.00,WeatherTracker,2014-09-21 12:21:00,
2014-09-21 05:24:00,57.5,49.6,29.79,NNW,344,0.0,0.0,75,0.00,,,0.00,WeatherTracker,2014-09-21 12:24:00,
2014-09-21 05:25:00,57.5,49.6,29.79,NNW,344,0.0,0.0,75,0.00,,,0.00,WeatherTracker,2014-09-21 12:25:00,
2014-09-21 05:26:00,57.5,49.6,29.79,NNW,344,0.0,0.0,75,0.00,,,0.00,WeatherTracker,2014-09-21 12:26:00,
2014-09-21 05:30:00,57.3,49.4,29.79,NNW,344,0.0,0.0,75,0.00,,,0.00,WeatherTracker,2014-09-21 12:30:00,
2014-09-21 05:32:00,57.2,49.3,29.79,NNW,344,0.0,0.0,75,0.00,,,0.00,WeatherTracker,2014-09-21 12:32:00,
2014-09-21 05:35:00,57.1,49.3,29.79,NNW,344,0.0,0.0,75,0.00,,,0.00,WeatherTracker,2014-09-21 12:35:00,
2014-09-21 05:37:00,57.0,49.2,29.79,NNW,344,0.0,0.0,75,0.00,,,0.00,WeatherTracker,2014-09-21 12:37:00,
2014-09-21 05:40:00,56.9,49.4,29.79,NNW,344,0.0,0.0,76,0.00,,,0.00,WeatherTracker,2014-09-21 12:40:00,
2014-09-21 05:41:00,56.9,49.8,29.79,NNW,344,0.0,0.0,77,0.00,,,0.00,WeatherTracker,2014-09-21 12:41:00,
2014-09-21 05:42:00,56.8,49.7,29.79,NNW,344,1.0,0.0,77,0.00,,,0.00,WeatherTracker,2014-09-21 12:42:00,
2014-09-21 05:46:00,56.8,50.0,29.79,NNW,344,0.0,0.0,78,0.00,,,0.00,WeatherTracker,2014-09-21 12:46:00,
2014-09-21 05:47:00,56.7,49.9,29.79,NNW,344,0.0,0.0,78,0.00,,,0.00,WeatherTracker,2014-09-21 12:47:00,
2014-09-21 05:48:00,56.7,49.9,29.79,NNW,344,0.0,0.0,78,0.00,,,0.00,WeatherTracker,2014-09-21 12:48:00,
2014-09-21 05:51:00,56.6,49.5,29.79,NNW,344,0.0,0.0,77,0.00,,,0.00,WeatherTracker,2014-09-21 12:51:00,
2014-09-21 05:53:00,56.6,49.5,29.79,NNW,344,0.0,0.0,77,0.00,,,0.00,WeatherTracker,2014-09-21 12:53:00,
2014-09-21 05:56:00,56.4,49.6,29.79,NNW,344,0.0,0.0,78,0.00,,,0.00,WeatherTracker,2014-09-21 12:56:00,
2014-09-21 05:58:00,56.4,49.3,29.79,NNW,344,0.0,0.0,77,0.00,,,0.00,WeatherTracker,2014-09-21 12:58:00,
2014-09-21 06:00:00,56.2,49.1,29.79,NNW,344,0.0,0.0,77,0.00,,,0.00,WeatherTracker,2014-09-21 13:00:00,
2014-09-21 06:01:00,56.2,49.1,29.79,NNW,344,0.0,0.0,77,0.00,,,0.00,WeatherTracker,2014-09-21 13:01:00,
2014-09-21 06:03:00,56.1,49.0,29.79,NNW,344,0.0,0.0,77,0.00,,,0.00,WeatherTracker,2014-09-21 13:03:00,
2014-09-21 06:04:00,56.0,48.9,29.79,NNW,344,0.0,0.0,77,0.00,,,0.00,WeatherTracker,2014-09-21 13:04:00,
2014-09-21 06:06:00,56.0,49.2,29.79,NNW,344,0.0,0.0,78,0.00,,,0.00,WeatherTracker,2014-09-21 13:06:00,
2014-09-21 06:08:00,55.9,49.5,29.79,NNW,344,0.0,0.0,79,0.00,,,0.00,WeatherTracker,2014-09-21 13:08:00,
2014-09-21 06:10:00,55.9,49.5,29.79,NNW,344,0.0,0.0,79,0.00,,,0.00,WeatherTracker,2014-09-21 13:10:00,
2014-09-21 06:11:00,55.8,49.7,29.79,NNW,344,0.0,0.0,80,0.00,,,0.00,WeatherTracker,2014-09-21 13:11:00,
2014-09-21 06:12:00,55.8,49.4,29.79,NNW,344,0.0,0.0,79,0.00,,,0.00,WeatherTracker,2014-09-21 13:12:00,
2014-09-21 06:13:00,55.7,49.3,29.79,NNW,344,0.0,0.0,79,0.00,,,0.00,WeatherTracker,2014-09-21 13:13:00,
2014-09-21 06:15:00,55.7,49.3,29.80,NNW,344,0.0,0.0,79,0.00,,,0.00,WeatherTracker,2014-09-21 13:15:00,
2014-09-21 06:16:00,55.6,49.2,29.80,NNW,344,0.0,0.0,79,0.00,,,0.00,WeatherTracker,2014-09-21 13:16:00,
2014-09-21 06:18:00,55.5,49.1,29.80,NNW,344,0.0,0.0,79,0.00,,,0.00,WeatherTracker,2014-09-21 13:18:00,
2014-09-21 06:19:00,55.5,49.1,29.80,NNW,344,0.0,0.0,79,0.00,,,0.00,WeatherTracker,2014-09-21 13:19:00,
2014-09-21 06:20:00,55.5,49.1,29.80,NNW,344,0.0,0.0,79,0.00,,,0.00,WeatherTracker,2014-09-21 13:20:00,
2014-09-21 06:22:00,55.4,48.7,29.80,NNW,344,0.0,0.0,78,0.00,,,0.00,WeatherTracker,2014-09-21 13:22:00,
2014-09-21 06:23:00,55.3,48.6,29.80,NNW,344,0.0,0.0,78,0.00,,,0.00,WeatherTracker,2014-09-21 13:23:00,
2014-09-21 06:24:00,55.3,48.6,29.80,NNW,344,0.0,0.0,78,0.00,,,0.00,WeatherTracker,2014-09-21 13:24:00,
2014-09-21 06:25:00,55.2,48.5,29.80,NNW,344,0.0,0.0,78,0.00,,,0.00,WeatherTracker,2014-09-21 13:25:00,
2014-09-21 06:27:00,55.1,48.7,29.80,NNW,344,0.0,0.0,79,0.00,,,0.00,WeatherTracker,2014-09-21 13:27:00,
2014-09-21 06:28:00,55.1,48.4,29.80,NNW,344,0.0,0.0,78,0.00,,,0.00,WeatherTracker,2014-09-21 13:28:00,
2014-09-21 06:29:00,55.0,48.3,29.80,NNW,344,0.0,0.0,78,0.00,,,0.00,WeatherTracker,2014-09-21 13:29:00,
2014-09-21 06:30:00,55.0,48.3,29.80,NNW,344,0.0,0.0,78,0.00,,,0.00,WeatherTracker,2014-09-21 13:30:00,
2014-09-21 06:32:00,55.0,48.6,29.80,NNW,344,0.0,0.0,79,0.00,,,0.00,WeatherTracker,2014-09-21 13:32:00,
2014-09-21 06:34:00,54.9,48.5,29.80,NNW,344,0.0,0.0,79,0.00,,,0.00,WeatherTracker,2014-09-21 13:34:00,
2014-09-21 06:35:00,54.8,48.4,29.80,NNW,344,0.0,0.0,79,0.00,,,0.00,WeatherTracker,2014-09-21 13:35:00,
2014-09-21 06:36:00,54.8,48.4,29.80,NNW,344,0.0,0.0,79,0.00,,,0.00,WeatherTracker,2014-09-21 13:36:00,
2014-09-21 06:37:00,54.8,48.4,29.80,NNW,344,0.0,0.0,79,0.00,,,0.00,WeatherTracker,2014-09-21 13:37:00,
2014-09-21 06:39:00,54.7,48.3,29.80,NNW,344,0.0,0.0,79,0.00,,,0.00,WeatherTracker,2014-09-21 13:39:00,
2014-09-21 06:40:00,54.6,48.2,29.80,NNW,344,0.0,0.0,79,0.00,,,0.00,WeatherTracker,2014-09-21 13:40:00,
2014-09-21 06:41:00,54.6,48.2,29.80,NNW,344,0.0,0.0,79,0.00,,,0.00,WeatherTracker,2014-09-21 13:41:00,
2014-09-21 06:43:00,54.6,48.2,29.80,NNW,344,0.0,0.0,79,0.00,,,0.00,WeatherTracker,2014-09-21 13:43:00,
2014-09-21 06:44:00,54.5,48.5,29.80,NNW,344,0.0,0.0,80,0.00,,,0.00,WeatherTracker,2014-09-21 13:44:00,
2014-09-21 06:45:00,54.5,48.5,29.80,NNW,344,0.0,0.0,80,0.00,,,0.00,WeatherTracker,2014-09-21 13:45:00,
2014-09-21 06:46:00,54.5,48.5,29.80,NNW,344,0.0,0.0,80,0.00,,,0.00,WeatherTracker,2014-09-21 13:46:00,
2014-09-21 06:48:00,54.4,48.4,29.80,NNW,344,0.0,0.0,80,0.00,,,0.00,WeatherTracker,2014-09-21 13:48:00,
2014-09-21 06:50:00,54.4,48.7,29.81,NNW,344,0.0,0.0,81,0.00,,,0.00,WeatherTracker,2014-09-21 13:50:00,
2014-09-21 06:51:00,54.4,48.7,29.81,NNW,344,0.0,0.0,81,0.00,,,0.00,WeatherTracker,2014-09-21 13:51:00,
2014-09-21 06:53:00,54.3,48.6,29.81,NNW,344,0.0,0.0,81,0.00,,,0.00,WeatherTracker,2014-09-21 13:53:00,
2014-09-21 06:55:00,54.2,48.2,29.81,NNW,344,0.0,0.0,80,0.00,,,0.00,WeatherTracker,2014-09-21 13:55:00,
2014-09-21 06:56:00,54.2,48.2,29.81,NNW,344,0.0,0.0,80,0.00,,,0.00,WeatherTracker,2014-09-21 13:56:00,
2014-09-21 06:58:00,54.1,48.1,29.81,NNW,344,0.0,0.0,80,0.00,,,0.00,WeatherTracker,2014-09-21 13:58:00,
2014-09-21 07:00:00,54.1,48.1,29.81,NNW,344,0.0,0.0,80,0.00,,,0.00,WeatherTracker,2014-09-21 14:00:00,
2014-09-21 07:01:00,54.0,48.0,29.81,NNW,344,0.0,0.0,80,0.00,,,0.00,WeatherTracker,2014-09-21 14:01:00,
2014-09-21 07:03:00,53.9,48.2,29.81,NNW,344,0.0,0.0,81,0.00,,,0.00,WeatherTracker,2014-09-21 14:03:00,
2014-09-21 07:05:00,53.9,48.2,29.81,NNW,344,0.0,0.0,81,0.00,,,0.00,WeatherTracker,2014-09-21 14:05:00,
2014-09-21 07:06:00,53.9,48.2,29.81,NNW,344,0.0,0.0,81,0.00,,,0.00,WeatherTracker,2014-09-21 14:06:00,
2014-09-21 07:07:00,53.8,48.1,29.81,NNW,344,0.0,0.0,81,0.00,,,0.00,WeatherTracker,2014-09-21 14:07:00,
2014-09-21 07:08:00,53.8,48.1,29.81,NNW,344,0.0,0.0,81,0.00,,,0.00,WeatherTracker,2014-09-21 14:08:00,
2014-09-21 07:11:00,53.8,48.8,29.81,NNW,344,0.0,0.0,83,0.00,,,0.00,WeatherTracker,2014-09-21 14:11:00,
2014-09-21 07:12:00,53.8,48.8,29.81,NNW,344,0.0,0.0,83,0.00,,,0.00,WeatherTracker,2014-09-21 14:12:00,
2014-09-21 07:14:00,53.8,49.1,29.81,NNW,344,0.0,0.0,84,0.00,,,0.00,WeatherTracker,2014-09-21 14:14:00,
2014-09-21 07:16:00,53.8,49.1,29.82,NNW,344,0.0,0.0,84,0.00,,,0.00,WeatherTracker,2014-09-21 14:16:00,
2014-09-21 07:18:00,53.7,49.0,29.82,NNW,344,0.0,0.0,84,0.00,,,0.00,WeatherTracker,2014-09-21 14:18:00,
2014-09-21 07:19:00,53.7,49.0,29.82,NNW,344,0.0,0.0,84,0.00,,,0.00,WeatherTracker,2014-09-21 14:19:00,
2014-09-21 07:21:00,53.7,49.0,29.82,NNW,344,0.0,0.0,84,0.00,,,0.00,WeatherTracker,2014-09-21 14:21:00,
2014-09-21 07:22:00,53.7,48.7,29.82,NNW,344,0.0,0.0,83,0.00,,,0.00,WeatherTracker,2014-09-21 14:22:00,
2014-09-21 07:24:00,53.6,48.6,29.82,NNW,344,0.0,0.0,83,0.00,,,0.00,WeatherTracker,2014-09-21 14:24:00,
2014-09-21 07:25:00,53.6,48.6,29.82,NNW,344,0.0,0.0,83,0.00,,,0.00,WeatherTracker,2014-09-21 14:25:00,
2014-09-21 07:26:00,53.6,48.6,29.82,NNW,344,0.0,0.0,83,0.00,,,0.00,WeatherTracker,2014-09-21 14:26:00,
2014-09-21 07:27:00,53.6,48.6,29.82,NNW,344,0.0,0.0,83,0.00,,,0.00,WeatherTracker,2014-09-21 14:27:00,
2014-09-21 07:29:00,53.5,48.1,29.82,NNW,344,0.0,0.0,82,0.00,,,0.00,WeatherTracker,2014-09-21 14:29:00,
2014-09-21 07:31:00,53.5,48.1,29.82,NNW,344,0.0,0.0,82,0.00,,,0.00,WeatherTracker,2014-09-21 14:31:00,
2014-09-21 07:32:00,53.5,48.1,29.82,NNW,344,0.0,0.0,82,0.00,,,0.00,WeatherTracker,2014-09-21 14:32:00,
2014-09-21 07:34:00,53.4,48.4,29.82,NNW,344,0.0,0.0,83,0.00,,,0.00,WeatherTracker,2014-09-21 14:34:00,
2014-09-21 07:36:00,53.5,48.5,29.82,NNW,344,0.0,0.0,83,0.00,,,0.00,WeatherTracker,2014-09-21 14:36:00,
2014-09-21 07:37:00,53.5,48.5,29.82,NNW,344,0.0,0.0,83,0.00,,,0.00,WeatherTracker,2014-09-21 14:37:00,
2014-09-21 07:40:00,53.5,48.5,29.82,NNW,344,0.0,0.0,83,0.00,,,0.00,WeatherTracker,2014-09-21 14:40:00,
2014-09-21 07:42:00,53.5,48.8,29.82,NNW,344,0.0,0.0,84,0.00,,,0.00,WeatherTracker,2014-09-21 14:42:00,
2014-09-21 07:43:00,53.5,48.8,29.82,NNW,344,0.0,0.0,84,0.00,,,0.00,WeatherTracker,2014-09-21 14:43:00,
2014-09-21 07:45:00,53.5,49.1,29.82,NNW,344,0.0,0.0,85,0.00,,,0.00,WeatherTracker,2014-09-21 14:45:00,
2014-09-21 07:47:00,53.6,49.2,29.82,NNW,344,0.0,0.0,85,0.00,,,0.00,WeatherTracker,2014-09-21 14:47:00,
2014-09-21 07:48:00,53.6,49.2,29.82,NNW,344,0.0,0.0,85,0.00,,,0.00,WeatherTracker,2014-09-21 14:48:00,
2014-09-21 07:50:00,53.6,49.2,29.82,NNW,344,0.0,0.0,85,0.00,,,0.00,WeatherTracker,2014-09-21 14:50:00,
2014-09-21 07:53:00,53.7,49.3,29.83,NNW,344,0.0,0.0,85,0.00,,,0.00,WeatherTracker,2014-09-21 14:53:00,
2014-09-21 07:56:00,53.8,49.4,29.83,NNW,344,0.0,0.0,85,0.00,,,0.00,WeatherTracker,2014-09-21 14:56:00,
2014-09-21 07:58:00,53.9,49.2,29.83,NNW,344,0.0,0.0,84,0.00,,,0.00,WeatherTracker,2014-09-21 14:58:00,
2014-09-21 08:02:00,54.1,49.4,29.83,NNW,344,0.0,0.0,84,0.00,,,0.00,WeatherTracker,2014-09-21 15:02:00,
2014-09-21 08:03:00,54.1,49.4,29.83,NNW,344,0.0,0.0,84,0.00,,,0.00,WeatherTracker,2014-09-21 15:03:00,
2014-09-21 08:04:00,54.1,49.4,29.83,NNW,344,0.0,0.0,84,0.00,,,0.00,WeatherTracker,2014-09-21 15:04:00,
2014-09-21 08:08:00,54.2,49.5,29.83,NNW,344,0.0,0.0,84,0.00,,,0.00,WeatherTracker,2014-09-21 15:08:00,
2014-09-21 08:09:00,54.2,49.5,29.83,NNW,344,0.0,0.0,84,0.00,,,0.00,WeatherTracker,2014-09-21 15:09:00,
2014-09-21 08:10:00,54.3,49.6,29.83,NNW,344,0.0,0.0,84,0.00,,,0.00,WeatherTracker,2014-09-21 15:10:00,
2014-09-21 08:13:00,54.4,49.3,29.83,NNW,344,0.0,0.0,83,0.00,,,0.00,WeatherTracker,2014-09-21 15:13:00,
2014-09-21 08:14:00,54.4,49.7,29.83,NNW,344,0.0,0.0,84,0.00,,,0.00,WeatherTracker,2014-09-21 15:14:00,
2014-09-21 08:16:00,54.6,49.9,29.83,NNW,344,0.0,0.0,84,0.00,,,0.00,WeatherTracker,2014-09-21 15:16:00,
2014-09-21 08:18:00,54.7,49.6,29.83,NNW,344,0.0,0.0,83,0.00,,,0.00,WeatherTracker,2014-09-21 15:18:00,
2014-09-21 08:19:00,54.8,49.7,29.83,NNW,344,0.0,0.0,83,0.00,,,0.00,WeatherTracker,2014-09-21 15:19:00,
2014-09-21 08:22:00,55.0,49.9,29.83,NNW,344,0.0,0.0,83,0.00,,,0.00,WeatherTracker,2014-09-21 15:22:00,
2014-09-21 08:24:00,55.1,50.0,29.83,NNW,344,0.0,0.0,83,0.00,,,0.00,WeatherTracker,2014-09-21 15:24:00,
2014-09-21 08:28:00,55.5,50.4,29.84,NNW,344,0.0,0.0,83,0.00,,,0.00,WeatherTracker,2014-09-21 15:28:00,
2014-09-21 08:29:00,55.6,50.5,29.84,NNW,344,0.0,0.0,83,0.00,,,0.00,WeatherTracker,2014-09-21 15:29:00,
2014-09-21 08:30:00,55.7,50.6,29.84,NNW,344,0.0,0.0,83,0.00,,,0.00,WeatherTracker,2014-09-21 15:30:00,
2014-09-21 08:33:00,56.0,50.6,29.84,NNW,344,0.0,0.0,82,0.00,,,0.00,WeatherTracker,2014-09-21 15:33:00,
2014-09-21 08:34:00,56.0,50.6,29.84,NNW,344,0.0,0.0,82,0.00,,,0.00,WeatherTracker,2014-09-21 15:34:00,
2014-09-21 08:35:00,56.1,50.7,29.84,NNW,344,0.0,0.0,82,0.00,,,0.00,WeatherTracker,2014-09-21 15:35:00,
2014-09-21 08:39:00,56.4,50.6,29.84,NNW,344,0.0,0.0,81,0.00,,,0.00,WeatherTracker,2014-09-21 15:39:00,
2014-09-21 08:40:00,56.4,50.6,29.84,NNW,344,0.0,0.0,81,0.00,,,0.00,WeatherTracker,2014-09-21 15:40:00,
2014-09-21 08:41:00,56.6,50.8,29.84,NNW,344,0.0,0.0,81,0.00,,,0.00,WeatherTracker,2014-09-21 15:41:00,
2014-09-21 08:43:00,56.7,50.6,29.84,NNW,344,0.0,0.0,80,0.00,,,0.00,WeatherTracker,2014-09-21 15:43:00,
2014-09-21 08:44:00,56.8,50.7,29.84,NNW,344,0.0,0.0,80,0.00,,,0.00,WeatherTracker,2014-09-21 15:44:00,
2014-09-21 08:45:00,56.9,50.8,29.84,NNW,344,0.0,0.0,80,0.00,,,0.00,WeatherTracker,2014-09-21 15:45:00,
2014-09-21 08:46:00,57.1,51.0,29.84,NNW,344,0.0,0.0,80,0.00,,,0.00,WeatherTracker,2014-09-21 15:46:00,
2014-09-21 08:48:00,57.2,51.1,29.84,NNW,344,0.0,0.0,80,0.00,,,0.00,WeatherTracker,2014-09-21 15:48:00,
2014-09-21 08:49:00,57.4,50.9,29.84,NNW,344,0.0,0.0,79,0.00,,,0.00,WeatherTracker,2014-09-21 15:49:00,
2014-09-21 08:50:00,57.5,51.0,29.84,NNW,344,0.0,0.0,79,0.00,,,0.00,WeatherTracker,2014-09-21 15:50:00,
2014-09-21 08:52:00,57.7,51.2,29.84,NNW,344,0.0,0.0,79,0.00,,,0.00,WeatherTracker,2014-09-21 15:52:00,
2014-09-21 08:53:00,57.8,51.0,29.84,NNW,344,0.0,0.0,78,0.00,,,0.00,WeatherTracker,2014-09-21 15:53:00,
2014-09-21 08:55:00,58.0,51.2,29.84,NNW,344,0.0,0.0,78,0.00,,,0.00,WeatherTracker,2014-09-21 15:55:00,
2014-09-21 08:57:00,58.3,51.5,29.84,NNW,344,0.0,0.0,78,0.00,,,0.00,WeatherTracker,2014-09-21 15:57:00,
2014-09-21 08:58:00,58.5,51.0,29.84,NNW,344,0.0,0.0,76,0.00,,,0.00,WeatherTracker,2014-09-21 15:58:00,
2014-09-21 09:00:00,58.7,51.2,29.84,NNW,344,0.0,0.0,76,0.00,,,0.00,WeatherTracker,2014-09-21 16:00:00,
2014-09-21 09:01:00,58.8,50.9,29.84,NNW,344,0.0,0.0,75,0.00,,,0.00,WeatherTracker,2014-09-21 16:01:00,
2014-09-21 09:02:00,58.9,51.0,29.84,NNW,344,0.0,0.0,75,0.00,,,0.00,WeatherTracker,2014-09-21 16:02:00,
2014-09-21 09:03:00,59.0,50.7,29.84,NNW,344,0.0,0.0,74,0.00,,,0.00,WeatherTracker,2014-09-21 16:03:00,
2014-09-21 09:06:00,59.5,51.2,29.84,NNW,344,0.0,0.0,74,0.00,,,0.00,WeatherTracker,2014-09-21 16:06:00,
2014-09-21 09:07:00,59.7,51.0,29.84,NNW,344,0.0,0.0,73,0.00,,,0.00,WeatherTracker,2014-09-21 16:07:00,
2014-09-21 09:08:00,59.9,51.2,29.84,NNW,344,0.0,0.0,73,0.00,,,0.00,WeatherTracker,2014-09-21 16:08:00,
2014-09-21 09:11:00,60.2,51.1,29.84,NNW,344,0.0,0.0,72,0.00,,,0.00,WeatherTracker,2014-09-21 16:11:00,
2014-09-21 09:13:00,60.4,51.3,29.84,NNW,344,0.0,0.0,72,0.00,,,0.00,WeatherTracker,2014-09-21 16:13:00,
2014-09-21 09:16:00,60.6,51.1,29.84,NNW,344,0.0,0.0,71,0.00,,,0.00,WeatherTracker,2014-09-21 16:16:00,
2014-09-21 09:17:00,60.7,51.2,29.84,NNW,344,0.0,0.0,71,0.00,,,0.00,WeatherTracker,2014-09-21 16:17:00,
2014-09-21 09:18:00,60.9,51.4,29.84,NNW,344,0.0,0.0,71,0.00,,,0.00,WeatherTracker,2014-09-21 16:18:00,
2014-09-21 09:19:00,60.9,51.4,29.83,NNW,344,0.0,0.0,71,0.00,,,0.00,WeatherTracker,2014-09-21 16:19:00,
2014-09-21 09:21:00,61.3,51.8,29.83,NNW,344,0.0,0.0,71,0.00,,,0.00,WeatherTracker,2014-09-21 16:21:00,
2014-09-21 09:23:00,61.4,51.9,29.83,NNW,344,0.0,0.0,71,0.00,,,0.00,WeatherTracker,2014-09-21 16:23:00,
2014-09-21 09:24:00,61.6,51.7,29.83,NNW,344,0.0,0.0,70,0.00,,,0.00,WeatherTracker,2014-09-21 16:24:00,
2014-09-21 09:27:00,61.9,51.6,29.83,NNW,344,0.0,0.0,69,0.00,,,0.00,WeatherTracker,2014-09-21 16:27:00,
2014-09-21 09:29:00,62.1,51.8,29.83,NNW,344,0.0,0.0,69,0.00,,,0.00,WeatherTracker,2014-09-21 16:29:00,
2014-09-21 09:30:00,62.2,52.3,29.83,NNW,344,0.0,0.0,70,0.00,,,0.00,WeatherTracker,2014-09-21 16:30:00,
2014-09-21 09:32:00,62.5,52.6,29.83,NNW,344,0.0,0.0,70,0.00,,,0.00,WeatherTracker,2014-09-21 16:32:00,
2014-09-21 09:34:00,62.9,52.6,29.83,NNW,344,0.0,0.0,69,0.00,,,0.00,WeatherTracker,2014-09-21 16:34:00,
2014-09-21 09:35:00,62.9,52.6,29.83,NNW,344,0.0,0.0,69,0.00,,,0.00,WeatherTracker,2014-09-21 16:35:00,
2014-09-21 09:37:00,63.2,52.9,29.83,NNW,344,0.0,0.0,69,0.00,,,0.00,WeatherTracker,2014-09-21 16:37:00,
2014-09-21 09:40:00,63.7,52.9,29.83,NNW,344,0.0,0.0,68,0.00,,,0.00,WeatherTracker,2014-09-21 16:40:00,
2014-09-21 09:41:00,63.8,53.0,29.83,NNW,344,0.0,0.0,68,0.00,,,0.00,WeatherTracker,2014-09-21 16:41:00,
2014-09-21 09:42:00,64.1,53.3,29.83,NNW,344,0.0,0.0,68,0.00,,,0.00,WeatherTracker,2014-09-21 16:42:00,
2014-09-21 09:46:00,64.7,52.7,29.83,NNW,344,0.0,0.0,65,0.00,,,0.00,WeatherTracker,2014-09-21 16:46:00,
2014-09-21 09:47:00,65.2,53.5,29.83,NNW,344,0.0,0.0,66,0.00,,,0.00,WeatherTracker,2014-09-21 16:47:00,
2014-09-21 09:51:00,66.3,54.2,29.83,NNW,344,0.0,0.0,65,0.00,,,0.00,WeatherTracker,2014-09-21 16:51:00,
2014-09-21 09:52:00,66.5,54.4,29.83,NNW,344,0.0,0.0,65,0.00,,,0.00,WeatherTracker,2014-09-21 16:52:00,
2014-09-21 09:56:00,68.4,54.9,29.83,NNW,344,0.0,0.0,62,0.00,,,0.00,WeatherTracker,2014-09-21 16:56:00,
2014-09-21 09:57:00,68.4,54.9,29.83,NNW,344,0.0,0.0,62,0.00,,,0.00,WeatherTracker,2014-09-21 16:57:00,
2014-09-21 09:58:00,69.0,54.1,29.83,NNW,344,0.0,0.0,59,0.00,,,0.00,WeatherTracker,2014-09-21 16:58:00,
2014-09-21 10:02:00,70.2,54.7,29.83,NNW,344,0.0,0.0,58,0.00,,,0.00,WeatherTracker,2014-09-21 17:02:00,
2014-09-21 10:03:00,70.8,54.8,29.83,NNW,344,0.0,0.0,57,0.00,,,0.00,WeatherTracker,2014-09-21 17:03:00,
2014-09-21 10:04:00,70.9,54.9,29.83,NNW,344,0.0,0.0,57,0.00,,,0.00,WeatherTracker,2014-09-21 17:04:00,
2014-09-21 10:07:00,71.8,53.7,29.83,NNW,344,0.0,0.0,53,0.00,,,0.00,WeatherTracker,2014-09-21 17:07:00,
2014-09-21 10:08:00,72.1,53.5,29.83,NNW,344,0.0,0.0,52,0.00,,,0.00,WeatherTracker,2014-09-21 17:08:00,
2014-09-21 10:09:00,72.1,53.5,29.83,NNW,344,0.0,0.0,52,0.00,,,0.00,WeatherTracker,2014-09-21 17:09:00,
2014-09-21 10:13:00,73.0,53.8,29.83,NNW,344,0.0,0.0,51,0.00,,,0.00,WeatherTracker,2014-09-21 17:13:00,
2014-09-21 10:14:00,73.2,54.0,29.83,NNW,344,0.0,0.0,51,0.00,,,0.00,WeatherTracker,2014-09-21 17:14:00,
2014-09-21 10:15:00,73.5,53.7,29.83,NNW,344,0.0,0.0,50,0.00,,,0.00,WeatherTracker,2014-09-21 17:15:00,
2014-09-21 10:18:00,73.9,53.5,29.83,NNW,344,0.0,0.0,49,0.00,,,0.00,WeatherTracker,2014-09-21 17:18:00,
2014-09-21 10:19:00,74.1,53.7,29.83,NNW,344,0.0,0.0,49,0.00,,,0.00,WeatherTracker,2014-09-21 17:19:00,
2014-09-21 10:21:00,74.6,54.2,29.83,NNW,344,0.0,0.0,49,0.00,,,0.00,WeatherTracker,2014-09-21 17:21:00,
2014-09-21 10:23:00,74.9,53.9,29.83,NNW,344,1.0,0.0,48,0.00,,,0.00,WeatherTracker,2014-09-21 17:23:00,
2014-09-21 10:24:00,75.2,53.6,29.83,NNW,344,0.0,0.0,47,0.00,,,0.00,WeatherTracker,2014-09-21 17:24:00,
2014-09-21 10:25:00,75.3,53.7,29.83,NNW,344,0.0,0.0,47,0.00,,,0.00,WeatherTracker,2014-09-21 17:25:00,
2014-09-21 10:27:00,75.7,54.0,29.82,NNW,344,0.0,0.0,47,0.00,,,0.00,WeatherTracker,2014-09-21 17:27:00,
2014-09-21 10:28:00,76.1,53.8,29.83,NNW,344,0.0,0.0,46,0.00,,,0.00,WeatherTracker,2014-09-21 17:28:00,
2014-09-21 10:30:00,76.4,53.5,29.82,NNW,344,0.0,0.0,45,0.00,,,0.00,WeatherTracker,2014-09-21 17:30:00,
2014-09-21 10:32:00,76.9,52.7,29.82,NNW,344,0.0,0.0,43,0.00,,,0.00,WeatherTracker,2014-09-21 17:32:00,
2014-09-21 10:34:00,77.3,53.0,29.82,NNW,344,0.0,0.0,43,0.00,,,0.00,WeatherTracker,2014-09-21 17:34:00,
2014-09-21 10:35:00,77.4,53.1,29.82,NNW,344,1.0,0.0,43,0.00,,,0.00,WeatherTracker,2014-09-21 17:35:00,
2014-09-21 10:37:00,77.8,53.5,29.82,NNW,344,0.0,0.0,43,0.00,,,0.00,WeatherTracker,2014-09-21 17:37:00,
2014-09-21 10:39:00,78.0,53.7,29.82,NNW,344,0.0,0.0,43,0.00,,,0.00,WeatherTracker,2014-09-21 17:39:00,
2014-09-21 10:40:00,78.3,53.9,29.82,NNW,344,0.0,0.0,43,0.00,,,0.00,WeatherTracker,2014-09-21 17:40:00,
2014-09-21 10:42:00,78.6,54.2,29.82,NNW,344,0.0,0.0,43,0.00,,,0.00,WeatherTracker,2014-09-21 17:42:00,
2014-09-21 10:43:00,78.7,54.3,29.82,NNW,344,0.0,0.0,43,0.00,,,0.00,WeatherTracker,2014-09-21 17:43:00,
2014-09-21 10:44:00,78.9,53.8,29.82,NNW,344,0.0,0.0,42,0.00,,,0.00,WeatherTracker,2014-09-21 17:44:00,
2014-09-21 10:45:00,79.1,54.7,29.82,NNW,344,0.0,0.0,43,0.00,,,0.00,WeatherTracker,2014-09-21 17:45:00,
2014-09-21 10:47:00,79.6,54.5,29.82,NNW,344,0.0,0.0,42,0.00,,,0.00,WeatherTracker,2014-09-21 17:47:00,
2014-09-21 10:48:00,79.7,54.6,29.82,NNW,344,0.0,0.0,42,0.00,,,0.00,WeatherTracker,2014-09-21 17:48:00,
2014-09-21 10:49:00,79.8,54.6,29.82,NNW,344,0.0,0.0,42,0.00,,,0.00,WeatherTracker,2014-09-21 17:49:00,
2014-09-21 10:50:00,80.0,52.8,29.82,NNW,344,0.0,0.0,39,0.00,,,0.00,WeatherTracker,2014-09-21 17:50:00,
2014-09-21 10:52:00,80.2,53.7,29.82,NNW,344,0.0,0.0,40,0.00,,,0.00,WeatherTracker,2014-09-21 17:52:00,
2014-09-21 10:53:00,80.3,53.8,29.82,NNW,344,0.0,0.0,40,0.00,,,0.00,WeatherTracker,2014-09-21 17:53:00,
2014-09-21 10:54:00,80.4,53.8,29.82,NNW,344,0.0,0.0,40,0.00,,,0.00,WeatherTracker,2014-09-21 17:54:00,
2014-09-21 10:55:00,80.5,52.5,29.82,NNW,344,0.0,0.0,38,0.00,,,0.00,WeatherTracker,2014-09-21 17:55:00,
2014-09-21 10:58:00,80.7,56.1,29.82,NNW,344,0.0,0.0,43,0.00,,,0.00,WeatherTracker,2014-09-21 17:58:00,
2014-09-21 10:59:00,80.9,55.6,29.82,NNW,344,0.0,0.0,42,0.00,,,0.00,WeatherTracker,2014-09-21 17:59:00,
2014-09-21 11:00:00,81.1,54.5,29.82,NNW,344,0.0,0.0,40,0.00,,,0.00,WeatherTracker,2014-09-21 18:00:00,
2014-09-21 11:03:00,81.3,53.9,29.82,NNW,344,0.0,0.0,39,0.00,,,0.00,WeatherTracker,2014-09-21 18:03:00,
2014-09-21 11:05:00,81.5,54.1,29.81,NNW,344,0.0,0.0,39,0.00,,,0.00,WeatherTracker,2014-09-21 18:05:00,
2014-09-21 11:07:00,81.6,54.2,29.81,NNW,344,0.0,0.0,39,0.00,,,0.00,WeatherTracker,2014-09-21 18:07:00,
2014-09-21 11:08:00,81.6,54.9,29.81,NNW,344,0.0,0.0,40,0.00,,,0.00,WeatherTracker,2014-09-21 18:08:00,
2014-09-21 11:10:00,81.6,53.5,29.81,NNW,344,0.0,0.0,38,0.00,,,0.00,WeatherTracker,2014-09-21 18:10:00,
2014-09-21 11:12:00,81.5,53.4,29.81,NNW,344,0.0,0.0,38,0.00,,,0.00,WeatherTracker,2014-09-21 18:12:00,
2014-09-21 11:13:00,81.5,52.7,29.81,NNW,344,0.0,0.0,37,0.00,,,0.00,WeatherTracker,2014-09-21 18:13:00,
2014-09-21 11:15:00,81.6,54.2,29.81,NNW,344,0.0,0.0,39,0.00,,,0.00,WeatherTracker,2014-09-21 18:15:00,
2014-09-21 11:16:00,81.7,53.6,29.81,NNW,344,0.0,0.0,38,0.00,,,0.00,WeatherTracker,2014-09-21 18:16:00,
2014-09-21 11:17:00,81.8,55.1,29.81,NNW,344,0.0,0.0,40,0.00,,,0.00,WeatherTracker,2014-09-21 18:17:00,
2014-09-21 11:20:00,82.1,53.9,29.81,NNW,344,0.0,0.0,38,0.00,,,0.00,WeatherTracker,2014-09-21 18:20:00,
2014-09-21 11:21:00,82.1,53.9,29.81,NNW,344,0.0,0.0,38,0.00,,,0.00,WeatherTracker,2014-09-21 18:21:00,
2014-09-21 11:22:00,82.2,53.3,29.81,NNW,344,0.0,0.0,37,0.00,,,0.00,WeatherTracker,2014-09-21 18:22:00,
2014-09-21 11:25:00,82.3,52.6,29.80,NNW,344,0.0,0.0,36,0.00,,,0.00,WeatherTracker,2014-09-21 18:25:00,
2014-09-21 11:27:00,82.5,55.0,29.80,NNW,344,0.0,0.0,39,0.00,,,0.00,WeatherTracker,2014-09-21 18:27:00,
2014-09-21 11:28:00,82.6,54.4,29.80,NNW,344,1.0,0.0,38,0.00,,,0.00,WeatherTracker,2014-09-21 18:28:00,
2014-09-21 11:31:00,82.9,54.7,29.80,NNW,344,0.0,0.0,38,0.00,,,0.00,WeatherTracker,2014-09-21 18:31:00,
2014-09-21 11:32:00,83.0,54.7,29.80,NNW,344,0.0,0.0,38,0.00,,,0.00,WeatherTracker,2014-09-21 18:32:00,
2014-09-21 11:33:00,83.1,53.4,29.80,NNW,344,0.0,0.0,36,0.00,,,0.00,WeatherTracker,2014-09-21 18:33:00,
2014-09-21 11:36:00,83.3,52.0,29.80,NNW,344,0.0,0.0,34,0.00,,,0.00,WeatherTracker,2014-09-21 18:36:00,
2014-09-21 11:38:00,83.5,52.9,29.80,NNW,344,0.0,0.0,35,0.00,,,0.00,WeatherTracker,2014-09-21 18:38:00,
2014-09-21 11:41:00,83.8,53.2,29.80,NNW,344,0.0,0.0,35,0.00,,,0.00,WeatherTracker,2014-09-21 18:41:00,
2014-09-21 11:43:00,83.8,54.7,29.79,NNW,344,0.0,0.0,37,0.00,,,0.00,WeatherTracker,2014-09-21 18:43:00,
2014-09-21 11:45:00,83.8,53.2,29.79,NNW,344,0.0,0.0,35,0.00,,,0.00,WeatherTracker,2014-09-21 18:45:00,
2014-09-21 11:47:00,83.9,54.1,29.79,NNW,344,0.0,0.0,36,0.00,,,0.00,WeatherTracker,2014-09-21 18:47:00,
2014-09-21 11:48:00,84.0,53.4,29.79,NNW,344,0.0,0.0,35,0.00,,,0.00,WeatherTracker,2014-09-21 18:48:00,
2014-09-21 11:49:00,84.0,53.4,29.79,NNW,344,0.0,0.0,35,0.00,,,0.00,WeatherTracker,2014-09-21 18:49:00,
2014-09-21 11:50:00,84.1,53.5,29.79,NNW,344,0.0,0.0,35,0.00,,,0.00,WeatherTracker,2014-09-21 18:50:00,
2014-09-21 11:52:00,84.2,53.5,29.79,NNW,344,0.0,0.0,35,0.00,,,0.00,WeatherTracker,2014-09-21 18:52:00,
2014-09-21 11:54:00,84.4,52.9,29.79,NNW,344,0.0,0.0,34,0.00,,,0.00,WeatherTracker,2014-09-21 18:54:00,
2014-09-21 11:56:00,84.7,52.4,29.79,NNW,344,0.0,0.0,33,0.00,,,0.00,WeatherTracker,2014-09-21 18:56:00,
2014-09-21 11:57:00,84.8,52.5,29.79,NNW,344,0.0,0.0,33,0.00,,,0.00,WeatherTracker,2014-09-21 18:57:00,
2014-09-21 11:59:00,85.1,53.5,29.79,NNW,344,0.0,0.0,34,0.00,,,0.00,WeatherTracker,2014-09-21 18:59:00,
2014-09-21 12:01:00,85.3,54.5,29.79,NNW,344,0.0,0.0,35,0.00,,,0.00,WeatherTracker,2014-09-21 19:01:00,
2014-09-21 12:02:00,85.4,54.6,29.79,NNW,344,0.0,0.0,35,0.00,,,0.00,WeatherTracker,2014-09-21 19:02:00,
2014-09-21 12:04:00,85.6,51.5,29.79,NNW,344,0.0,0.0,31,0.00,,,0.00,WeatherTracker,2014-09-21 19:04:00,
2014-09-21 12:06:00,85.7,54.1,29.79,NNW,344,0.0,0.0,34,0.00,,,0.00,WeatherTracker,2014-09-21 19:06:00,
2014-09-21 12:08:00,85.8,52.5,29.78,NNW,344,0.0,0.0,32,0.00,,,0.00,WeatherTracker,2014-09-21 19:08:00,
2014-09-21 12:09:00,86.0,52.7,29.79,NNW,344,0.0,0.0,32,0.00,,,0.00,WeatherTracker,2014-09-21 19:09:00,
2014-09-21 12:10:00,86.0,52.7,29.78,NNW,344,0.0,0.0,32,0.00,,,0.00,WeatherTracker,2014-09-21 19:10:00,
2014-09-21 12:11:00,86.1,54.4,29.78,NNW,344,0.0,0.0,34,0.00,,,0.00,WeatherTracker,2014-09-21 19:11:00,
2014-09-21 12:13:00,86.2,52.0,29.78,NNW,344,0.0,0.0,31,0.00,,,0.00,WeatherTracker,2014-09-21 19:13:00,
2014-09-21 12:14:00,86.3,52.1,29.78,NNW,344,0.0,0.0,31,0.00,,,0.00,WeatherTracker,2014-09-21 19:14:00,
2014-09-21 12:15:00,86.4,52.2,29.78,NNW,344,0.0,0.0,31,0.00,,,0.00,WeatherTracker,2014-09-21 19:15:00,
2014-09-21 12:18:00,86.6,54.0,29.78,NNW,344,0.0,0.0,33,0.00,,,0.00,WeatherTracker,2014-09-21 19:18:00,
2014-09-21 12:19:00,86.8,52.5,29.78,NNW,344,0.0,0.0,31,0.00,,,0.00,WeatherTracker,2014-09-21 19:19:00,
2014-09-21 12:20:00,86.8,52.5,29.78,NNW,344,0.0,0.0,31,0.00,,,0.00,WeatherTracker,2014-09-21 19:20:00,
2014-09-21 12:23:00,87.0,52.7,29.78,NNW,344,0.0,0.0,31,0.00,,,0.00,WeatherTracker,2014-09-21 19:23:00,
2014-09-21 12:25:00,87.3,52.9,29.78,NNW,344,0.0,0.0,31,0.00,,,0.00,WeatherTracker,2014-09-21 19:25:00,
2014-09-21 12:26:00,87.3,52.9,29.78,NNW,344,0.0,0.0,31,0.00,,,0.00,WeatherTracker,2014-09-21 19:26:00,
2014-09-21 12:28:00,87.8,53.4,29.77,NNW,344,1.0,0.0,31,0.00,,,0.00,WeatherTracker,2014-09-21 19:28:00,
2014-09-21 12:29:00,87.9,53.4,29.77,NNW,344,0.0,0.0,31,0.00,,,0.00,WeatherTracker,2014-09-21 19:29:00,
2014-09-21 12:31:00,88.1,52.7,29.77,NNW,335,0.0,0.0,30,0.00,,,0.00,WeatherTracker,2014-09-21 19:31:00,
2014-09-21 12:32:00,88.1,54.5,29.77,NNW,335,1.0,0.0,32,0.00,,,0.00,WeatherTracker,2014-09-21 19:32:00,
2014-09-21 12:34:00,88.2,53.7,29.77,NNW,335,2.0,0.0,31,0.00,,,0.00,WeatherTracker,2014-09-21 19:34:00,
2014-09-21 12:36:00,88.4,53.9,29.77,NNW,335,0.0,0.0,31,0.00,,,0.00,WeatherTracker,2014-09-21 19:36:00,
2014-09-21 12:37:00,88.6,54.9,29.77,NNW,335,1.0,0.0,32,0.00,,,0.00,WeatherTracker,2014-09-21 19:37:00,
2014-09-21 12:39:00,88.7,52.3,29.77,NNW,335,0.0,0.0,29,0.00,,,0.00,WeatherTracker,2014-09-21 19:39:00,
2014-09-21 12:42:00,88.8,53.3,29.77,NNW,335,0.0,0.0,30,0.00,,,0.00,WeatherTracker,2014-09-21 19:42:00,
2014-09-21 12:43:00,88.7,55.0,29.77,NNW,335,1.0,0.0,32,0.00,,,0.00,WeatherTracker,2014-09-21 19:43:00,
2014-09-21 12:44:00,88.7,53.2,29.77,NNW,335,0.0,0.0,30,0.00,,,0.00,WeatherTracker,2014-09-21 19:44:00,
2014-09-21 12:47:00,88.7,52.3,29.77,NNW,336,0.0,0.0,29,0.00,,,0.00,WeatherTracker,2014-09-21 19:47:00,
2014-09-21 12:48:00,88.7,52.3,29.77,NNW,336,0.0,0.0,29,0.00,,,0.00,WeatherTracker,2014-09-21 19:48:00,
2014-09-21 12:49:00,88.8,51.5,29.77,NNW,336,0.0,0.0,28,0.00,,,0.00,WeatherTracker,2014-09-21 19:49:00,
2014-09-21 12:53:00,89.3,57.2,29.77,NNW,337,0.0,0.0,34,0.00,,,0.00,WeatherTracker,2014-09-21 19:53:00,
2014-09-21 12:54:00,89.5,55.7,29.77,NNW,337,0.0,0.0,32,0.00,,,0.00,WeatherTracker,2014-09-21 19:54:00,
2014-09-21 12:58:00,90.2,56.3,29.76,NNW,342,2.0,0.0,32,0.00,,,0.00,WeatherTracker,2014-09-21 19:58:00,
2014-09-21 12:59:00,90.5,53.9,29.76,NNW,342,0.0,0.0,29,0.00,,,0.00,WeatherTracker,2014-09-21 19:59:00,
2014-09-21 13:03:00,91.3,53.6,29.76,NNW,342,0.0,0.0,28,0.00,,,0.00,WeatherTracker,2014-09-21 20:03:00,
2014-09-21 13:04:00,91.4,53.7,29.76,NNW,342,0.0,0.0,28,0.00,,,0.00,WeatherTracker,2014-09-21 20:04:00,
2014-09-21 13:08:00,92.0,53.2,29.76,NNW,342,0.0,0.0,27,0.00,,,0.00,WeatherTracker,2014-09-21 20:08:00,
2014-09-21 13:09:00,92.1,54.3,29.76,NNW,342,0.0,0.0,28,0.00,,,0.00,WeatherTracker,2014-09-21 20:09:00,
2014-09-21 13:10:00,92.1,54.3,29.76,NNW,342,0.0,0.0,28,0.00,,,0.00,WeatherTracker,2014-09-21 20:10:00,
2014-09-21 13:14:00,92.2,54.3,29.75,NNW,342,0.0,0.0,28,0.00,,,0.00,WeatherTracker,2014-09-21 20:14:00,
2014-09-21 13:16:00,92.2,53.3,29.76,NNW,342,0.0,0.0,27,0.00,,,0.00,WeatherTracker,2014-09-21 20:16:00,
2014-09-21 13:19:00,92.4,53.5,29.75,NNW,333,0.0,0.0,27,0.00,,,0.00,WeatherTracker,2014-09-21 20:19:00,
2014-09-21 13:20:00,92.4,52.5,29.75,NNW,333,0.0,0.0,26,0.00,,,0.00,WeatherTracker,2014-09-21 20:20:00,
2014-09-21 13:21:00,92.4,53.5,29.75,NNW,333,0.0,0.0,27,0.00,,,0.00,WeatherTracker,2014-09-21 20:21:00,
2014-09-21 13:24:00,92.6,53.7,29.75,NW,321,0.0,0.0,27,0.00,,,0.00,WeatherTracker,2014-09-21 20:24:00,
2014-09-21 13:25:00,92.6,53.7,29.75,NW,321,0.0,0.0,27,0.00,,,0.00,WeatherTracker,2014-09-21 20:25:00,
2014-09-21 13:26:00,92.6,51.6,29.75,NW,321,0.0,0.0,25,0.00,,,0.00,WeatherTracker,2014-09-21 20:26:00,
2014-09-21 13:30:00,92.3,52.4,29.75,NW,316,0.0,0.0,26,0.00,,,0.00,WeatherTracker,2014-09-21 20:30:00,
2014-09-21 13:31:00,92.2,52.3,29.75,NNW,327,2.0,0.0,26,0.00,,,0.00,WeatherTracker,2014-09-21 20:31:00,
2014-09-21 13:32:00,92.1,52.2,29.75,NW,324,0.0,0.0,26,0.00,,,0.00,WeatherTracker,2014-09-21 20:32:00,
2014-09-21 13:35:00,91.9,52.1,29.75,NW,319,0.0,0.0,26,0.00,,,0.00,WeatherTracker,2014-09-21 20:35:00,
2014-09-21 13:37:00,92.0,53.2,29.74,NW,319,0.0,0.0,27,0.00,,,0.00,WeatherTracker,2014-09-21 20:37:00,
2014-09-21 13:38:00,92.0,55.1,29.75,NNW,335,0.0,0.0,29,0.00,,,0.00,WeatherTracker,2014-09-21 20:38:00,
2014-09-21 13:40:00,91.8,53.0,29.74,NNW,330,0.0,0.0,27,0.00,,,0.00,WeatherTracker,2014-09-21 20:40:00,
2014-09-21 13:42:00,91.8,55.0,29.74,NW,321,1.0,0.0,29,0.00,,,0.00,WeatherTracker,2014-09-21 20:42:00,
2014-09-21 13:43:00,91.7,52.9,29.74,NNW,327,1.0,0.0,27,0.00,,,0.00,WeatherTracker,2014-09-21 20:43:00,
2014-09-21 13:45:00,91.8,55.0,29.74,NNW,333,1.0,0.0,29,0.00,,,0.00,WeatherTracker,2014-09-21 20:45:00,
2014-09-21 13:47:00,91.8,53.0,29.74,ENE,65,2.0,0.0,27,0.00,,,0.00,WeatherTracker,2014-09-21 20:47:00,
2014-09-21 13:48:00,91.8,55.0,29.74,NE,52,3.0,0.0,29,0.00,,,0.00,WeatherTracker,2014-09-21 20:48:00,
2014-09-21 13:51:00,91.9,55.1,29.74,ENE,61,2.0,0.0,29,0.00,,,0.00,WeatherTracker,2014-09-21 20:51:00,
2014-09-21 13:52:00,92.0,55.1,29.74,NNW,338,5.0,0.0,29,0.00,,,0.00,WeatherTracker,2014-09-21 20:52:00,
2014-09-21 13:54:00,91.9,56.0,29.74,ENE,75,1.0,0.0,30,0.00,,,0.00,WeatherTracker,2014-09-21 20:54:00,
2014-09-21 13:56:00,91.8,54.0,29.74,NNE,16,0.0,0.0,28,0.00,,,0.00,WeatherTracker,2014-09-21 20:56:00,
2014-09-21 13:58:00,91.9,54.1,29.74,West,272,4.0,0.0,28,0.00,,,0.00,WeatherTracker,2014-09-21 20:58:00,
2014-09-21 13:59:00,92.0,55.1,29.74,North,1,2.0,0.0,29,0.00,,,0.00,WeatherTracker,2014-09-21 20:59:00,
2014-09-21 14:00:00,91.8,54.0,29.74,ENE,70,0.0,0.0,28,0.00,,,0.00,WeatherTracker,2014-09-21 21:00:00,
2014-09-21 14:01:00,91.8,55.9,29.74,NE,46,2.0,0.0,30,0.00,,,0.00,WeatherTracker,2014-09-21 21:01:00,
2014-09-21 14:03:00,91.7,53.9,29.74,NE,38,0.0,0.0,28,0.00,,,0.00,WeatherTracker,2014-09-21 21:03:00,
2014-09-21 14:04:00,91.7,52.9,29.73,NE,34,0.0,0.0,27,0.00,,,0.00,WeatherTracker,2014-09-21 21:04:00,
2014-09-21 14:05:00,91.7,54.9,29.73,ENE,61,4.0,0.0,29,0.00,,,0.00,WeatherTracker,2014-09-21 21:05:00,
2014-09-21 14:06:00,91.6,54.8,29.73,ENE,66,3.0,0.0,29,0.00,,,0.00,WeatherTracker,2014-09-21 21:06:00,
2014-09-21 14:08:00,91.4,53.7,29.73,NNE,22,0.0,0.0,28,0.00,,,0.00,WeatherTracker,2014-09-21 21:08:00,
2014-09-21 14:10:00,91.3,53.6,29.73,North,354,0.0,0.0,28,0.00,,,0.00,WeatherTracker,2014-09-21 21:10:00,
2014-09-21 14:11:00,91.2,54.5,29.73,NNW,344,4.0,0.0,29,0.00,,,0.00,WeatherTracker,2014-09-21 21:11:00,
2014-09-21 14:12:00,91.1,54.4,29.73,North,349,2.0,0.0,29,0.00,,,0.00,WeatherTracker,2014-09-21 21:12:00,
2014-09-21 14:13:00,91.1,55.3,29.73,NNW,347,4.0,0.0,30,0.00,,,0.00,WeatherTracker,2014-09-21 21:13:00,
2014-09-21 14:15:00,91.1,53.4,29.73,North,349,1.0,0.0,28,0.00,,,0.00,WeatherTracker,2014-09-21 21:15:00,
2014-09-21 14:17:00,91.1,53.4,29.73,NNW,328,1.0,0.0,28,0.00,,,0.00,WeatherTracker,2014-09-21 21:17:00,
2014-09-21 14:18:00,91.1,53.4,29.73,NNW,328,0.0,0.0,28,0.00,,,0.00,WeatherTracker,2014-09-21 21:18:00,
2014-09-21 14:21:00,91.2,54.5,29.73,North,5,1.0,0.0,29,0.00,,,0.00,WeatherTracker,2014-09-21 21:21:00,
2014-09-21 14:23:00,91.4,55.6,29.73,NNW,340,4.0,0.0,30,0.00,,,0.00,WeatherTracker,2014-09-21 21:23:00,
2014-09-21 14:26:00,91.5,54.7,29.73,North,351,1.0,0.0,29,0.00,,,0.00,WeatherTracker,2014-09-21 21:26:00,
2014-09-21 14:28:00,91.5,54.7,29.73,NNW,341,1.0,0.0,29,0.00,,,0.00,WeatherTracker,2014-09-21 21:28:00,
2014-09-21 14:29:00,91.6,52.8,29.73,West,266,3.0,0.0,27,0.00,,,0.00,WeatherTracker,2014-09-21 21:29:00,
2014-09-21 14:31:00,91.8,54.0,29.73,NNW,332,0.0,0.0,28,0.00,,,0.00,WeatherTracker,2014-09-21 21:31:00,
2014-09-21 14:34:00,91.8,52.0,29.73,NE,52,1.0,0.0,26,0.00,,,0.00,WeatherTracker,2014-09-21 21:34:00,
2014-09-21 14:37:00,91.7,52.9,29.73,North,352,5.0,0.0,27,0.00,,,0.00,WeatherTracker,2014-09-21 21:37:00,
2014-09-21 14:39:00,91.5,52.8,29.73,North,352,4.0,0.0,27,0.00,,,0.00,WeatherTracker,2014-09-21 21:39:00,
2014-09-21 14:40:00,91.5,50.7,29.73,ENE,69,4.0,0.0,25,0.00,,,0.00,WeatherTracker,2014-09-21 21:40:00,
2014-09-21 14:43:00,91.2,50.4,29.73,North,4,0.0,0.0,25,0.00,,,0.00,WeatherTracker,2014-09-21 21:43:00,
2014-09-21 14:44:00,91.2,51.5,29.73,NW,313,5.0,0.0,26,0.00,,,0.00,WeatherTracker,2014-09-21 21:44:00,
2014-09-21 14:46:00,91.3,51.6,29.73,NNW,338,0.0,0.0,26,0.00,,,0.00,WeatherTracker,2014-09-21 21:46:00,
2014-09-21 14:48:00,91.4,51.6,29.73,West,270,4.0,0.0,26,0.00,,,0.00,WeatherTracker,2014-09-21 21:48:00,
2014-09-21 14:49:00,91.4,51.6,29.73,NNW,327,0.0,0.0,26,0.00,,,0.00,WeatherTracker,2014-09-21 21:49:00,
2014-09-21 14:50:00,91.4,51.6,29.73,NNW,332,1.0,0.0,26,0.00,,,0.00,WeatherTracker,2014-09-21 21:50:00,
2014-09-21 14:51:00,91.5,54.7,29.73,NNW,329,0.0,0.0,29,0.00,,,0.00,WeatherTracker,2014-09-21 21:51:00,
2014-09-21 14:53:00,91.5,49.6,29.73,WNW,296,1.0,0.0,24,0.00,,,0.00,WeatherTracker,2014-09-21 21:53:00,
2014-09-21 14:54:00,91.6,49.7,29.73,WNW,300,0.0,0.0,24,0.00,,,0.00,WeatherTracker,2014-09-21 21:54:00,
2014-09-21 14:55:00,91.6,53.8,29.72,WNW,295,2.0,0.0,28,0.00,,,0.00,WeatherTracker,2014-09-21 21:55:00,
2014-09-21 14:56:00,91.7,50.8,29.72,NW,321,4.0,0.0,25,0.00,,,0.00,WeatherTracker,2014-09-21 21:56:00,
2014-09-21 14:58:00,91.8,50.9,29.72,NW,322,0.0,0.0,25,0.00,,,0.00,WeatherTracker,2014-09-21 21:58:00,
2014-09-21 14:59:00,91.9,51.0,29.72,NW,320,0.0,0.0,25,0.00,,,0.00,WeatherTracker,2014-09-21 21:59:00,
2014-09-21 15:01:00,92.0,52.2,29.72,NNW,328,1.0,0.0,26,0.00,,,0.00,WeatherTracker,2014-09-21 22:01:00,
2014-09-21 15:04:00,92.2,51.3,29.73,NNW,340,1.0,0.0,25,0.00,,,0.00,WeatherTracker,2014-09-21 22:04:00,
2014-09-21 15:06:00,92.2,50.2,29.72,North,352,1.0,0.0,24,0.00,,,0.00,WeatherTracker,2014-09-21 22:06:00,
2014-09-21 15:07:00,92.2,51.3,29.72,NNW,335,2.0,0.0,25,0.00,,,0.00,WeatherTracker,2014-09-21 22:07:00,
2014-09-21 15:09:00,92.0,50.0,29.72,North,356,1.0,0.0,24,0.00,,,0.00,WeatherTracker,2014-09-21 22:09:00,
2014-09-21 15:11:00,91.9,49.9,29.72,NE,37,0.0,0.0,24,0.00,,,0.00,WeatherTracker,2014-09-21 22:11:00,
2014-09-21 15:12:00,91.9,52.1,29.72,NNE,22,0.0,0.0,26,0.00,,,0.00,WeatherTracker,2014-09-21 22:12:00,
2014-09-21 15:14:00,91.7,50.8,29.72,ENE,62,1.0,0.0,25,0.00,,,0.00,WeatherTracker,2014-09-21 22:14:00,
2014-09-21 15:15:00,91.6,49.7,29.72,East,79,2.0,0.0,24,0.00,,,0.00,WeatherTracker,2014-09-21 22:15:00,
2014-09-21 15:16:00,91.5,48.4,29.72,East,79,1.0,0.0,23,0.00,,,0.00,WeatherTracker,2014-09-21 22:16:00,
2014-09-21 15:19:00,91.4,52.7,29.72,NE,36,2.0,0.0,27,0.00,,,0.00,WeatherTracker,2014-09-21 22:19:00,
2014-09-21 15:20:00,91.4,54.6,29.72,NE,54,2.0,0.0,29,0.00,,,0.00,WeatherTracker,2014-09-21 22:20:00,
2014-09-21 15:22:00,91.5,50.7,29.72,NE,54,1.0,0.0,25,0.00,,,0.00,WeatherTracker,2014-09-21 22:22:00,
2014-09-21 15:25:00,91.5,49.6,29.72,NE,55,0.0,0.0,24,0.00,,,0.00,WeatherTracker,2014-09-21 22:25:00,
2014-09-21 15:26:00,91.5,49.6,29.72,NNE,21,0.0,0.0,24,0.00,,,0.00,WeatherTracker,2014-09-21 22:26:00,
2014-09-21 15:27:00,91.6,49.7,29.72,NNE,21,2.0,0.0,24,0.00,,,0.00,WeatherTracker,2014-09-21 22:27:00,
2014-09-21 15:30:00,91.7,52.9,29.72,ENE,62,2.0,0.0,27,0.00,,,0.00,WeatherTracker,2014-09-21 22:30:00,
2014-09-21 15:31:00,91.7,52.9,29.72,ENE,67,3.0,0.0,27,0.00,,,0.00,WeatherTracker,2014-09-21 22:31:00,
2014-09-21 15:32:00,91.7,50.8,29.72,ENE,76,1.0,0.0,25,0.00,,,0.00,WeatherTracker,2014-09-21 22:32:00,
2014-09-21 15:36:00,91.8,49.8,29.72,ENE,66,4.0,0.0,24,0.00,,,0.00,WeatherTracker,2014-09-21 22:36:00,
2014-09-21 15:37:00,91.7,50.8,29.72,NNE,12,1.0,0.0,25,0.00,,,0.00,WeatherTracker,2014-09-21 22:37:00,
2014-09-21 15:41:00,91.5,50.7,29.72,NE,56,0.0,0.0,25,0.00,,,0.00,WeatherTracker,2014-09-21 22:41:00,
2014-09-21 15:42:00,91.4,50.6,29.72,ENE,57,6.0,0.0,25,0.00,,,0.00,WeatherTracker,2014-09-21 22:42:00,
2014-09-21 15:43:00,91.3,49.4,29.72,ENE,64,4.0,0.0,24,0.00,,,0.00,WeatherTracker,2014-09-21 22:43:00,